#timestamp,LO_Frequency,Hit,StdDev 
1528426815.2,286047002.3,N
1528426865.1,286047000.5,E
1528426875.0,286047000.7,N
1528426875.9,286047000.7,P
1528426895.8,286046998.7,P
1528426915.6,286046999.3,N
1528426935.4,286046999.1,N
1528426955.3,286046999.0,N
1528426975.1,286046998.7,N
1528426995.9,286046999.9,N
1528427015.7,286047000.0,N
1528427035.5,286046998.6,N
1528427055.4,286046998.4,N
1528427075.2,286046998.6,N
1528427095.0,286046998.2,N
1528427095.9,286046998.2,N
1528427115.8,286047000.9,N
1528427135.6,286047000.9,N
1528427155.5,286046998.6,N
1528427175.3,286047000.3,N
1528427195.1,286047001.1,N
1528427215.9,286047001.1,N
1528427235.7,286046998.4,N
1528427255.6,286046998.3,N
1528427275.4,286046998.7,N
1528427295.2,286046999.2,N
1528427315.1,286046997.0,N
1528427316.0,286046997.0,N
1528427335.8,286046997.2,N
1528427355.6,286046999.5,N
1528427375.5,286046998.5,N
1528427395.3,286047001.2,N
1528427415.2,286047000.8,N
1528427435.9,286046998.2,N
1528427455.7,286046999.7,N
1528427475.6,286047001.2,N
1528427495.4,286047000.6,N
1528427515.3,286046998.6,N
1528427535.1,286047000.3,N
1528427536.0,286047000.3,N
1528427555.8,286047000.7,N
1528427575.7,286046999.7,N
1528427595.5,286047000.9,N
1528427615.3,286047000.0,N
1528427635.2,286046999.7,N
1528427655.0,286046999.7,N
1528427655.9,286046999.7,N
1528427675.8,286047000.5,N
1528427695.6,286047001.0,N
1528427715.4,286047000.7,N
1528427735.3,286047000.3,N
1528427755.1,286047002.5,N
1528427775.8,286047002.8,N
1528427795.7,286047000.3,N
1528427815.5,286047000.4,N
1528427835.4,286047000.0,N
1528427855.2,286047000.6,N
1528427875.0,286047000.6,N
1528427875.9,286047000.6,N
1528427895.8,286047000.2,N
1528427915.6,286046999.8,N
1528427935.4,286047001.1,N
1528427955.3,286046999.0,N
1528427975.1,286046998.6,N
1528427995.9,286046998.5,N
1528428015.7,286046998.6,N
1528428035.5,286047002.4,N
1528428055.4,286047000.4,N
1528428075.2,286046998.3,N
1528428095.0,286047001.2,N
1528428095.9,286047001.2,N
1528428115.8,286046998.4,N
1528428135.6,286047000.8,N
1528428155.5,286047002.7,N
1528428175.3,286047004.3,Y
1528428195.1,286047007.4,P
1528428215.9,286047007.2,N
1528428235.7,286047007.3,N
1528428255.5,286047004.9,N
1528428275.4,286047005.1,N
1528428295.2,286047004.7,N
1528428315.1,286047007.4,Y
1528428316.0,286047007.4,P
1528428335.8,286047000.0,N
1528428355.6,286047002.4,N
1528428375.5,286047000.1,N
1528428395.3,286047000.5,N
1528428415.2,286047002.6,N
1528428435.9,286047001.9,N
1528428455.7,286047002.7,N
1528428475.6,286047000.2,N
1528428495.4,286047001.0,N
1528428515.2,286047000.4,N
1528428535.1,286047002.7,N
1528428536.0,286047002.7,N
1528428555.8,286047002.5,N
1528428575.7,286047001.9,N
1528428595.5,286047001.0,N
1528428615.3,286046998.1,N
1528428635.2,286047000.8,N
1528428655.9,286046998.1,N
1528428675.7,286046998.9,N
1528428695.6,286047000.8,N
1528428715.4,286046999.4,N
1528428735.3,286046995.0,N
1528428755.1,286046997.7,N
1528428756.0,286046997.7,N
1528428775.8,286046999.0,N
1528428795.7,286046997.9,N
1528428815.5,286046998.0,N
1528428835.3,286046997.2,N
1528428855.2,286046997.3,N
1528428875.0,286046999.6,N
1528428875.9,286046999.6,N
1528428895.8,286046997.2,N
1528428915.6,286046993.8,Y
1528428935.4,286046996.0,P
1528428955.3,286046995.5,N
1528428975.1,286046996.4,N
1528428995.9,286046996.0,N
1528429015.7,286046997.8,N
1528429035.5,286046995.5,Y
1528429055.4,286046996.9,P
1528429075.2,286046996.9,P
1528429095.0,286046997.2,P
1528429096.0,286046997.2,Y
1528429115.8,286047000.5,P
1528429135.6,286047000.7,N
1528429155.5,286047000.7,N
1528429175.3,286047000.5,N
1528429195.2,286047002.3,N
1528429215.9,286046999.9,N
1528429235.7,286046999.8,N
1528429255.6,286046998.2,N
1528429275.2,286046998.9,N
1528429295.1,286046999.6,N
1528429296.0,286046999.6,N
1528429315.8,286046998.5,N
1528429335.6,286046997.0,N
1528429355.5,286046999.3,N
1528429375.3,286046998.3,N
1528429395.2,286046998.7,N
1528429415.9,286046999.0,N
1528429435.7,286047000.8,N
1528429455.6,286046998.9,N
1528429475.4,286046998.9,N
1528429495.2,286046998.1,N
1528429515.1,286046998.6,N
1528429516.0,286046998.6,N
1528429535.8,286046998.4,N
1528429555.7,286046999.2,N
1528429575.5,286046999.5,N
1528429595.3,286046997.5,N
1528429615.2,286046995.6,Y
1528429635.0,286046999.2,P
1528429635.9,286046999.2,P
1528429655.8,286046996.9,P
1528429675.6,286046996.6,Y
1528429695.5,286046999.7,P
1528429715.3,286047002.2,P
1528429735.1,286047002.7,N
1528429755.9,286047000.7,N
1528429775.7,286047002.6,N
1528429795.6,286047000.5,N
1528429815.4,286047000.4,N
1528429835.2,286046998.1,N
1528429855.1,286047001.2,N
1528429856.0,286047001.2,N
1528429875.8,286047000.3,N
1528429895.6,286046998.4,N
1528429915.5,286046998.8,N
1528429935.3,286046999.0,N
1528429955.2,286046998.7,N
1528429975.9,286047001.1,N
1528429995.7,286047000.3,N
1528430015.6,286046998.1,N
1528430035.4,286047000.8,N
1528430055.2,286046998.2,N
1528430075.1,286047001.0,N
1528430076.0,286047001.0,N
1528430095.8,286047001.2,N
1528430115.7,286047001.1,N
1528430135.5,286046998.7,N
1528430155.3,286046999.1,N
1528430175.2,286046999.0,N
1528430195.0,286046999.1,N
1528430195.9,286046999.1,N
1528430215.8,286046999.1,N
1528430235.6,286046996.5,N
1528430255.4,286046999.1,N
1528430275.3,286047001.2,N
1528430295.1,286046998.9,N
1528430315.8,286046999.4,N
1528430335.7,286046999.1,N
1528430355.5,286046998.8,N
1528430375.4,286046999.0,N
1528430395.2,286047000.9,N
